Al Bitayyah, Egypt

8:39 AM EET on May 23, 2017 (GMT +0200)
Al Bitayyah

Weather History for 62366 - April, 2014

Change the Weather History Date:

Sunday, April 20, 2014

  Actual Average Record
Temperature  
Mean Temperature 70 °F -  
Max Temperature 79 °F 85 °F - ()
Min Temperature 62 °F 62 °F - ()
Cooling Degree Days 6    
Growing Degree Days 20 (Base 50)    
Moisture  
Dew Point 56 °F    
Average Humidity 62    
Maximum Humidity 88    
Minimum Humidity 29    
Precipitation  
Precipitation 0.00 in 0.00 in - ()
Sea Level Pressure  
Sea Level Pressure 29.96 in    
Wind  
Wind Speed 10 mph ()    
Max Wind Speed 15 mph    
Max Gust Speed -    
Visibility 3.7 miles    
Events      
T = Trace of Precipitation, MM = Missing Value Source: Averaged Metar Reports

Daily Weather History Graph

Daily Weather History Graph

Search for Another Location

Airport or City:

Trip Planner

Search our weather history database for the weather conditions in past years. The results will help you decide how hot, cold, wet, or windy it might be!

Date:

Astronomy

Apr. 20, 2014 Rise Set
Actual Time 5:22 AM EET 6:24 PM EET
Civil Twilight 4:57 AM EET 6:49 PM EET
Nautical Twilight 4:28 AM EET 7:18 PM EET
Astronomical Twilight 3:58 AM EET 7:49 PM EET
Moon 11:31 PM EET (4/20) 9:30 AM EET (4/20)
Length of Visible Light 13h 51m
Length of Day
13h 02m
Waning Gibbous, 71% of the Moon is Illuminated
Apr 20
Waning Gibbous
Apr 22
Last Quarter
Apr 29
New
May 7
First Quarter
May 14
Full

Hourly Weather History & Observations

Time (EET) Temp. Heat Index Dew Point Humidity Pressure Visibility Wind Dir Wind Speed Gust Speed Precip Events Conditions
12:00 AM 66.2 °F - 60.8 °F 83% 29.95 in 6.2 mi North 9.2 mph - N/A   Mostly Cloudy
12:30 AM 66.2 °F - 60.8 °F 83% 29.95 in 6.2 mi North 9.2 mph - N/A   Mostly Cloudy
1:00 AM 64.4 °F - 59.0 °F 83% 29.92 in 3.7 mi North 9.2 mph - N/A   Unknown
1:30 AM 64.4 °F - 59.0 °F 83% 29.92 in 3.7 mi North 9.2 mph - N/A   Unknown
2:00 AM 64 °F - 60 °F 83% 29.95 in 2 mi NNW 10.4 mph - -   Mist
2:00 AM 64.4 °F - 60.8 °F 88% 29.95 in 2.5 mi NNW 10.4 mph - N/A   Mist
2:30 AM 64.4 °F - 60.8 °F 88% 29.95 in 1.9 mi NNW 10.4 mph - N/A   Mist
3:00 AM 64.4 °F - 60.8 °F 88% 29.92 in 1.9 mi North 10.4 mph - N/A   Mist
3:30 AM 64.4 °F - 60.8 °F 88% 29.95 in 1.9 mi North 8.1 mph - N/A   Mist
4:00 AM 64.4 °F - 59.0 °F 83% 29.95 in 1.9 mi NNW 8.1 mph - N/A   Mist
4:30 AM 64.4 °F - 60.8 °F 88% 29.95 in 1.9 mi NNW 9.2 mph - N/A   Mist
5:00 AM 63 °F - 60 °F 85% 29.96 in 1 mi North 9.2 mph - -   Mist
5:00 AM 62.6 °F - 59.0 °F 88% 29.95 in 1.2 mi North 9.2 mph - N/A   Mist
5:30 AM 62.6 °F - 59.0 °F 88% 29.95 in 1.2 mi North 10.4 mph - N/A   Mist
6:00 AM 62.6 °F - 59.0 °F 88% 29.95 in 1.2 mi North 11.5 mph - N/A   Mist
6:30 AM 62.6 °F - 57.2 °F 82% 29.98 in 1.2 mi North 10.4 mph - N/A   Mist
7:00 AM 62.6 °F - 57.2 °F 82% 29.98 in 1.2 mi North 10.4 mph - N/A   Mist
7:30 AM 64.4 °F - 57.2 °F 77% 29.98 in 1.2 mi North 11.5 mph - N/A   Mist
8:00 AM 65 °F - 57 °F 69% 29.99 in 2 mi North 9.2 mph - -   Mist
8:00 AM 64.4 °F - 57.2 °F 77% 29.98 in 2.5 mi North 9.2 mph - N/A   Mist
8:30 AM 66.2 °F - 55.4 °F 68% 29.98 in 3.7 mi North 13.8 mph - N/A   Unknown
9:00 AM 68.0 °F - 55.4 °F 64% 29.98 in - NNE 13.8 mph - N/A   Clear
9:30 AM 68.0 °F - 55.4 °F 64% 29.98 in - NNE 13.8 mph - N/A   Clear
10:00 AM 71.6 °F - 55.4 °F 57% 29.98 in - North 12.7 mph - N/A   Clear
10:30 AM 71.6 °F - 55.4 °F 57% 29.98 in 6.2 mi North 12.7 mph - N/A   Scattered Clouds
11:00 AM 73 °F - 56 °F 44% 29.99 in 6 mi North 15.0 mph - -   Scattered Clouds
11:00 AM 73.4 °F - 55.4 °F 53% 29.98 in 6.2 mi North 15.0 mph - N/A   Partly Cloudy
11:30 AM 75.2 °F - 55.4 °F 50% 29.98 in 6.2 mi North 13.8 mph - N/A   Partly Cloudy
12:00 PM 75.2 °F - 55.4 °F 50% 29.98 in 6.2 mi NNE 15.0 mph - N/A   Partly Cloudy
12:30 PM 77.0 °F - 55.4 °F 47% 29.95 in 6.2 mi North 13.8 mph - N/A   Partly Cloudy
1:00 PM 77.0 °F - 55.4 °F 47% 29.95 in 6.2 mi North 12.7 mph - N/A   Partly Cloudy
1:30 PM 78.8 °F - 53.6 °F 42% 29.95 in 6.2 mi North 12.7 mph - N/A   Partly Cloudy
2:00 PM 80 °F - 53 °F 29% 29.94 in 6 mi NNE 12.7 mph - -  
2:00 PM 80.6 °F 80.3 °F 53.6 °F 39% 29.95 in - NNE 12.7 mph - N/A   Clear
2:30 PM 80.6 °F 80.3 °F 53.6 °F 39% 29.92 in - North 12.7 mph - N/A   Clear
3:00 PM 80.6 °F 80.3 °F 53.6 °F 39% 29.92 in - North 11.5 mph - N/A   Clear
3:30 PM 80.6 °F 80.3 °F 53.6 °F 39% 29.92 in - North 12.7 mph - N/A   Clear
4:00 PM 80.6 °F - 51.8 °F 37% 29.92 in - North 11.5 mph - N/A   Clear
4:30 PM 80.6 °F - 51.8 °F 37% 29.92 in - North 11.5 mph - N/A   Clear
5:00 PM 78 °F - 53 °F 31% 29.92 in 6 mi North 13.8 mph - -  
5:00 PM 78.8 °F - 53.6 °F 42% 29.92 in - North 13.8 mph - N/A   Clear
5:30 PM 77.0 °F - 53.6 °F 44% 29.92 in - North 13.8 mph - N/A   Clear
6:00 PM 75.2 °F - 53.6 °F 47% 29.92 in - North 15.0 mph - N/A   Clear
6:30 PM 75.2 °F - 53.6 °F 47% 29.92 in - North 13.8 mph - N/A   Clear
7:00 PM 73.4 °F - 51.8 °F 47% 29.95 in - North 13.8 mph - N/A   Clear
7:30 PM 71.6 °F - 51.8 °F 50% 29.95 in - North 13.8 mph - N/A   Clear
8:00 PM 69 °F - 52 °F 45% 29.97 in 6 mi North 13.8 mph - -  
8:00 PM 69.8 °F - 51.8 °F 53% 29.98 in - North 13.8 mph - N/A   Clear
8:30 PM 68.0 °F - 51.8 °F 56% 29.98 in - North 13.8 mph - N/A   Clear
8:35 PM 68.0 °F - 51.8 °F 56% 29.98 in - North 13.8 mph - N/A   Clear
9:00 PM 66.2 °F - 51.8 °F 60% 29.98 in - North 13.8 mph - N/A   Clear
9:30 PM 66.2 °F - 51.8 °F 60% 30.01 in - North 13.8 mph - N/A   Clear
10:00 PM 64.4 °F - 51.8 °F 64% 30.01 in - North 11.5 mph - N/A   Clear
10:30 PM 64.4 °F - 51.8 °F 64% 30.01 in - North 11.5 mph - N/A   Clear
11:00 PM 63 °F - 54 °F 64% 30.02 in 6 mi North 11.5 mph - -  
11:00 PM 62.6 °F - 53.6 °F 72% 30.01 in - North 11.5 mph - N/A   Clear
11:30 PM 62.6 °F - 53.6 °F 72% 30.01 in - North 11.5 mph - N/A   Clear